H1 CPF 2 NER 2025 8 19 9 231 01 glonass132 H2 1401201 9132 39620 2025 8 19 0 0 0 2025 8 22 23 45 0 900 1 1 0 0 0 1 H9 10 0 60906 0.00000 0 -6675857.187 -9894790.727 -22532055.104 10 0 60906 900.00000 0 -3863961.980 -10120604.253 -23079388.343 10 0 60906 1800.00000 0 -1037392.874 -10563453.778 -23177864.763 10 0 60906 2700.00000 0 1733069.767 -11213832.875 -22825427.476 10 0 60906 3600.00000 0 4379519.275 -12049968.264 -22028802.900 10 0 60906 4500.00000 0 6839513.826 -13038697.330 -20803379.889 10 0 60906 5400.00000 0 9058438.804 -14136845.731 -19172918.396 10 0 60906 6300.00000 0 10991541.796 -15293047.854 -17169092.539 10 0 60906 7200.00000 0 12605555.136 -16449933.822 -14830876.343 10 0 60906 8100.00000 0 13879838.191 -17546590.769 -12203783.770 10 0 60906 9000.00000 0 14806991.778 -18521194.099 -9338977.754 10 0 60906 9900.00000 0 15392919.580 -19313696.806 -6292265.982 10 0 60906 10800.00000 0 15656334.948 -19868462.238 -3123003.659 10 0 60906 11700.00000 0 15627735.167 -20136727.828 107074.351 10 0 60906 12600.00000 0 15347888.138 -20078794.508 3335067.991 10 0 60906 13500.00000 0 14865897.197 -19665848.279 6498148.063 10 0 60906 14400.00000 0 14236927.887 -18881336.357 9534788.503 10 0 60906 15300.00000 0 13519694.599 -17721839.425 12385969.718 10 0 60906 16200.00000 0 12773814.941 -16197403.242 14996328.797 10 0 60906 17100.00000 0 12057144.833 -14331315.901 17315233.829 10 0 60906 18000.00000 0 11423207.515 -12159340.521 19297761.567 10 0 60906 18900.00000 0 10918825.158 -9728436.017 20905559.970 10 0 60906 19800.00000 0 10582052.527 -7095019.884 22107579.890 10 0 60906 20700.00000 0 10440498.901 -4322845.696 22880662.911 10 0 60906 21600.00000 0 10510107.791 -1480583.576 23209975.387 10 0 60906 22500.00000 0 10794444.485 1360796.255 23089281.693 10 0 60906 23400.00000 0 11284520.211 4130729.131 22521052.643 10 0 60906 24300.00000 0 11959159.324 6761739.801 21516408.038 10 0 60906 25200.00000 0 12785893.498 9191994.838 20094895.095 10 0 60906 26100.00000 0 13722345.149 11367619.467 18284107.366 10 0 60906 27000.00000 0 14718042.228 13244684.591 16119151.438 10 0 60906 27900.00000 0 15716588.701 14790783.277 13641971.281 10 0 60906 28800.00000 0 16658100.355 15986132.797 10900542.695 10 0 60906 29700.00000 0 17481804.465 16824157.752 7947952.593 10 0 60906 30600.00000 0 18128694.932 17311531.065 4841380.016 10 0 60906 31500.00000 0 18544131.919 17467671.913 1640997.793 10 0 60906 32400.00000 0 18680277.077 17323722.105 -1591184.689 10 0 60906 33300.00000 0 18498261.943 16921044.030 -4792515.861 10 0 60906 34200.00000 0 17969997.926 16309303.223 -7900910.758 10 0 60906 35100.00000 0 17079550.950 15544215.998 -10856051.147 10 0 60906 36000.00000 0 15824021.760 14685056.665 -13600553.922 10 0 60906 36900.00000 0 14213893.334 13792029.053 -16081085.100 10 0 60906 37800.00000 0 12272828.985 12923612.904 -18249397.800 10 0 60906 38700.00000 0 10036927.567 12133996.868 -20063273.910 10 0 60906 39600.00000 0 7553464.897 11470706.437 -21487350.936 10 0 60906 40500.00000 0 4879171.976 10972527.102 -22493817.640 10 0 60906 41400.00000 0 2078120.010 10667810.767 -23062964.587 10 0 60906 42300.00000 0 -780701.094 10573237.574 -23183578.281 10 0 60906 43200.00000 0 -3626011.155 10693086.176 -22853170.625 10 0 60906 44100.00000 0 -6386966.426 11019044.223 -22078038.440 10 0 60906 45000.00000 0 -8995871.554 11530568.047 -20873151.038 10 0 60906 45900.00000 0 -11390763.965 12195777.260 -19261867.179 10 0 60906 46800.00000 0 -13517762.930 12972847.229 -17275486.115 10 0 60906 47700.00000 0 -15333085.041 13811841.017 -14952640.842 10 0 60906 48600.00000 0 -16804641.719 14656903.418 -12338544.958 10 0 60906 49500.00000 0 -17913151.894 15448724.019 -9484107.740 10 0 60906 50400.00000 0 -18652723.453 16127164.336 -6444934.997 10 0 60906 51300.00000 0 -19030879.583 16633936.828 -3280235.820 10 0 60906 52200.00000 0 -19068030.079 16915221.258 -51657.566 10 0 60906 53100.00000 0 -18796411.078 16924106.298 3177926.999 10 0 60906 54000.00000 0 -18258539.689 16622751.879 6345655.390 10 0 60906 54900.00000 0 -17505250.673 15984179.920 9389908.543 10 0 60906 55800.00000 0 -16593399.960 14993617.116 12251516.217 10 0 60906 56700.00000 0 -15583333.683 13649332.827 14874910.361 10 0 60906 57600.00000 0 -14536230.918 11962936.681 17209203.674 10 0 60906 58500.00000 0 -13511433.156 9959123.633 19209172.399 10 0 60906 59400.00000 0 -12563873.444 7674877.494 20836124.839 10 0 60906 60300.00000 0 -11741713.202 5158166.552 22058639.692 10 0 60906 61200.00000 0 -11084285.422 2466185.996 22853161.109 10 0 60906 62100.00000 0 -10620429.497 -336779.734 23204440.371 10 0 60906 63000.00000 0 -10367286.198 -3181786.126 23105817.067 10 0 60906 63900.00000 0 -10329601.854 -5997849.166 22559335.597 10 0 60906 64800.00000 0 -10499569.514 -8714649.644 21575695.797 10 0 60906 65700.00000 0 -10857212.585 -11265210.520 20174039.336 10 0 60906 66600.00000 0 -11371294.043 -13588437.873 18381576.323 10 0 60906 67500.00000 0 -12000712.676 -15631421.780 16233059.291 10 0 60906 68400.00000 0 -12696327.742 -17351403.330 13770114.314 10 0 60906 69300.00000 0 -13403135.755 -18717327.543 11040441.545 10 0 60906 70200.00000 0 -14062708.473 -19710918.967 8096899.816 10 0 60906 71100.00000 0 -14615790.236 -20327236.187 4996492.095 10 0 60906 72000.00000 0 -15004945.984 -20574682.847 1799270.591 10 0 60906 72900.00000 0 -15177148.909 -20474475.208 -1432818.083 10 0 60906 73800.00000 0 -15086198.949 -20059588.718 -4637125.987 10 0 60906 74700.00000 0 -14694870.042 -19373227.694 -7751512.483 10 0 60906 75600.00000 0 -13976695.097 -18466882.170 -10715545.334 10 0 60906 76500.00000 0 -12917312.508 -17398053.193 -13471671.195 10 0 60906 77400.00000 0 -11515316.110 -16227741.867 -15966332.762 10 0 60906 78300.00000 0 -9782571.081 -15017807.398 -18151010.941 10 0 60906 79200.00000 0 -7743980.447 -13828305.037 -19983171.653 10 0 60906 80100.00000 0 -5436709.790 -12714915.803 -21427098.658 10 0 60906 81000.00000 0 -2908900.361 -11726576.156 -22454595.970 10 0 60906 81900.00000 0 -217922.231 -10903407.562 -23045545.775 10 0 60906 82800.00000 0 2571761.492 -10275033.452 -23188310.490 10 0 60906 83700.00000 0 5391031.909 -9859354.936 -22879970.485 10 0 60906 84600.00000 0 8168752.680 -9661837.444 -22126392.074 10 0 60906 85500.00000 0 10834500.302 -9675338.987 -20942123.591 10 0 60907 0.00000 0 13321272.682 -9880487.864 -19350120.865 10 0 60907 900.00000 0 15568064.423 -10246594.484 -17381305.683 10 0 60907 1800.00000 0 17522197.817 -10733058.711 -15073967.430 10 0 60907 2700.00000 0 19141316.243 -11291213.574 -12473016.298 10 0 60907 3600.00000 0 20394952.941 -11866526.700 -9629104.553 10 0 60907 4500.00000 0 21265610.613 -12401065.607 -6597632.512 10 0 60907 5400.00000 0 21749306.660 -12836121.403 -3437659.403 10 0 60907 6300.00000 0 21855561.669 -13114878.476 -210741.276 10 0 60907 7200.00000 0 21606832.564 -13185015.628 3020280.121 10 0 60907 8100.00000 0 21037415.869 -13001127.215 6192512.517 10 0 60907 9000.00000 0 20191868.852 -12526860.540 9244247.005 10 0 60907 9900.00000 0 19123017.028 -11736678.227 12116165.413 10 0 60907 10800.00000 0 17889633.841 -10617170.568 14752496.788 10 0 60907 11700.00000 0 16553891.756 -9167862.169 17102100.156 10 0 60907 12600.00000 0 15178693.331 -7401478.965 19119452.468 10 0 60907 13500.00000 0 13824995.170 -5343664.540 20765523.105 10 0 60907 14400.00000 0 12549237.301 -3032157.859 22008518.905 10 0 60907 15300.00000 0 11400985.384 -515466.972 22824486.473 10 0 60907 16200.00000 0 10420883.587 2148906.018 23197761.533 10 0 60907 17100.00000 0 9639002.488 4896615.137 23121258.062 10 0 60907 18000.00000 0 9073649.508 7658907.048 22596592.895 10 0 60907 18900.00000 0 8730689.979 10365243.697 21634044.468 10 0 60907 19800.00000 0 8603405.645 12946003.508 20252347.204 10 0 60907 20700.00000 0 8672895.196 15335150.519 18478325.849 10 0 60907 21600.00000 0 8908999.067 17472762.259 16346376.776 10 0 60907 22500.00000 0 9271709.177 19307313.033 13897805.893 10 0 60907 23400.00000 0 9713004.254 20797619.148 11180035.309 10 0 60907 24300.00000 0 10179033.799 21914366.441 8245693.274 10 0 60907 25200.00000 0 10612559.248 22641157.459 5151604.104 10 0 60907 26100.00000 0 10955550.012 22975035.301 1957696.767 10 0 60907 27000.00000 0 11151825.514 22926462.631 -1274147.502 10 0 60907 27900.00000 0 11149632.078 22518756.863 -4481286.921 10 0 60907 28800.00000 0 10904046.042 21787005.019 -7601527.574 10 0 60907 29700.00000 0 10379101.344 20776503.463 -10574325.422 10 0 60907 30600.00000 0 9549551.126 19540787.507 -13341958.845 10 0 60907 31500.00000 0 8402187.909 18139333.129 -15850648.941 10 0 60907 32400.00000 0 6936665.173 16635026.770 -18051605.884 10 0 60907 33300.00000 0 5165783.806 15091509.064 -19901980.879 10 0 60907 34200.00000 0 3115229.223 13570503.687 -21365705.014 10 0 60907 35100.00000 0 822767.860 12129243.327 -22414198.425 10 0 60907 36000.00000 0 -1663065.694 10818100.785 -23026935.612 10 0 60907 36900.00000 0 -4284738.143 9678524.818 -23191855.360 10 0 60907 37800.00000 0 -6977871.538 8741367.663 -22905606.685 10 0 60907 38700.00000 0 -9673693.584 8025674.824 -22173625.224 10 0 60907 39600.00000 0 -12301683.041 7537988.415 -21010037.764 10 0 60907 40500.00000 0 -14792300.500 7272193.686 -19437395.876 10 0 60907 41400.00000 0 -17079690.817 7209915.401 -17486243.037 10 0 60907 42300.00000 0 -19104244.128 7321447.430 -15194522.990 10 0 60907 43200.00000 0 -20814908.048 7567176.029 -12606840.443 10 0 60907 44100.00000 0 -22171153.788 7899436.159 -9773588.369 10 0 60907 45000.00000 0 -23144513.334 8264721.407 -6749959.212 10 0 60907 45900.00000 0 -23719623.086 8606152.810 -3594859.876 10 0 60907 46800.00000 0 -23894730.230 8866100.592 -369752.622 10 0 60907 47700.00000 0 -23681641.140 8988846.222 2862554.275 10 0 60907 48600.00000 0 -23105114.856 8923170.421 6039141.216 10 0 60907 49500.00000 0 -22201728.593 8624756.122 9098211.923 10 0 60907 50400.00000 0 -21018264.862 8058303.559 11980302.730 10 0 60907 51300.00000 0 -19609689.631 7199267.211 14629442.189 10 0 60907 52200.00000 0 -18036808.299 6035140.795 16994237.971 10 0 60907 53100.00000 0 -16363699.365 4566235.976 19028869.907 10 0 60907 54000.00000 0 -14655034.455 2805922.082 20693970.425 10 0 60907 54900.00000 0 -12973397.474 780316.923 21957376.210 10 0 60907 55800.00000 0 -11376714.985 -1472558.153 22794737.717 10 0 60907 56700.00000 0 -9915904.516 -3904123.665 23189976.161 10 0 60907 57600.00000 0 -8632837.778 -6457031.942 23135580.590 10 0 60907 58500.00000 0 -7558702.290 -9067327.565 22632740.576 10 0 60907 59400.00000 0 -6712827.919 -11666889.262 21691313.069 10 0 60907 60300.00000 0 -6102025.502 -14186052.931 20329624.762 10 0 60907 61200.00000 0 -5720463.439 -16556308.116 18574114.155 10 0 60907 62100.00000 0 -5550085.974 -18712957.409 16458820.186 10 0 60907 63000.00000 0 -5561554.566 -20597629.763 14024726.952 10 0 60907 63900.00000 0 -5715672.204 -22160544.567 11318976.532 10 0 60907 64800.00000 0 -5965230.619 -23362433.439 8393964.330 10 0 60907 65700.00000 0 -6257202.765 -24176040.602 5306333.498 10 0 60907 66600.00000 0 -6535188.569 -24587139.848 2115887.084 10 0 60907 67500.00000 0 -6742011.219 -24595025.926 -1115561.878 10 0 60907 68400.00000 0 -6822354.843 -24212459.802 -4325380.705 10 0 60907 69300.00000 0 -6725332.355 -23465069.826 -7451325.223 10 0 60907 70200.00000 0 -6406874.980 -22390233.428 -10432742.679 10 0 60907 71100.00000 0 -5831842.072 -21035485.610 -13211746.278 10 0 60907 72000.00000 0 -4975761.324 -19456520.294 -15734338.576 10 0 60907 72900.00000 0 -3826124.666 -17714867.639 -17951461.942 10 0 60907 73800.00000 0 -2383183.585 -15875344.075 -19819955.554 10 0 60907 74700.00000 0 -660208.364 -14003381.402 -21303400.175 10 0 60907 75600.00000 0 1316801.886 -12162346.512 -22372833.984 10 0 60907 76500.00000 0 3509948.618 -10410963.719 -23007325.211 10 0 60907 77400.00000 0 5870770.197 -8800947.675 -23194389.892 10 0 60907 78300.00000 0 8342031.427 -7374946.019 -22930246.022 10 0 60907 79200.00000 0 10859893.267 -6164878.163 -22219898.375 10 0 60907 80100.00000 0 13356373.419 -5190740.072 -21077051.491 10 0 60907 81000.00000 0 15761995.933 -4459925.347 -19523851.682 10 0 60907 81900.00000 0 18008519.525 -3967091.217 -17590462.194 10 0 60907 82800.00000 0 20031630.500 -3694574.947 -15314479.150 10 0 60907 83700.00000 0 21773487.253 -3613342.757 -12740199.221 10 0 60907 84600.00000 0 23185009.116 -3684430.544 -9917753.093 10 0 60907 85500.00000 0 24227813.017 -3860814.549 -6902121.943 10 0 60908 0.00000 0 24875716.079 -4089631.552 -3752056.953 10 0 60908 900.00000 0 25115740.989 -4314653.232 -528922.168 10 0 60908 1800.00000 0 24948581.246 -4478907.876 2704511.250 10 0 60908 2700.00000 0 24388508.289 -4527337.118 5885300.183 10 0 60908 3600.00000 0 23462724.509 -4409373.233 8951564.502 10 0 60908 4500.00000 0 22210191.052 -4081326.623 11843698.229 10 0 60908 5400.00000 0 20679981.209 -3508481.457 14505532.148 10 0 60908 6300.00000 0 18929230.107 -2666810.236 16885424.807 10 0 60908 7200.00000 0 17020768.150 -1544234.598 18937260.663 10 0 60908 8100.00000 0 15020538.540 -141379.265 20621336.457 10 0 60908 9000.00000 0 12994907.610 1528212.460 21905119.538 10 0 60908 9900.00000 0 11007980.518 3438410.425 22763864.607 10 0 60908 10800.00000 0 9119033.822 5551362.603 23181078.360 10 0 60908 11700.00000 0 7380170.993 7818857.213 23148824.507 10 0 60908 12600.00000 0 5834297.041 10184125.471 22667864.563 10 0 60908 13500.00000 0 4513494.832 12584010.485 21747632.817 10 0 60908 14400.00000 0 3437868.716 14951412.976 20406046.695 10 0 60908 15300.00000 0 2614901.746 17217913.210 18669156.580 10 0 60908 16200.00000 0 2039351.500 19316461.422 16570641.825 10 0 60908 17100.00000 0 1693687.334 21184026.193 14151162.319 10 0 60908 18000.00000 0 1549049.688 22764091.808 11457577.523 10 0 60908 18900.00000 0 1566690.495 24008901.713 8542047.249 10 0 60908 19800.00000 0 1699833.869 24881355.394 5461030.653 10 0 60908 20700.00000 0 1895878.821 25356480.059 2274201.959 10 0 60908 21600.00000 0 2098851.385 25422415.859 -956696.891 10 0 60908 22500.00000 0 2252003.013 25080873.371 -4169045.129 10 0 60908 23400.00000 0 2300445.805 24347043.787 -7300551.003 10 0 60908 24300.00000 0 2193713.297 23248964.979 -10290455.511 10 0 60908 25200.00000 0 1888138.443 21826369.176 -13080708.899 10 0 60908 26100.00000 0 1348947.779 20129059.657 -15617097.118 10 0 60908 27000.00000 0 551982.413 18214883.541 -17850296.379 10 0 60908 27900.00000 0 -515028.133 16147384.655 -19736835.236 10 0 60908 28800.00000 0 -1851694.585 13993233.980 -21239945.278 10 0 60908 29700.00000 0 -3444733.611 11819544.527 -22330283.663 10 0 60908 30600.00000 0 -5268282.590 9691182.445 -22986513.058 10 0 60908 31500.00000 0 -7284752.529 7668186.536 -23195727.203 10 0 60908 32400.00000 0 -9446185.548 5803403.880 -22953713.221 10 0 60908 33300.00000 0 -11696062.056 4140440.458 -22265044.807 10 0 60908 34200.00000 0 -13971483.544 2712012.555 -21143003.639 10 0 60908 35100.00000 0 -16205640.808 1538768.060 -19609329.705 10 0 60908 36000.00000 0 -18330464.966 628627.030 -17693804.525 10 0 60908 36900.00000 0 -20279350.395 -23330.977 -15433674.737 10 0 60908 37800.00000 0 -21989835.249 -434428.452 -12872926.775 10 0 60908 38700.00000 0 -23406126.562 -633419.600 -10061426.625 10 0 60908 39600.00000 0 -24481363.130 -659030.000 -7053941.637 10 0 60908 40500.00000 0 -25179520.286 -558069.317 -3909064.034 10 0 60908 41400.00000 0 -25476876.053 -383198.523 -688058.082 10 0 60908 42300.00000 0 -25362976.447 -190447.796 2546345.427 10 0 60908 43200.00000 0 -24841059.298 -36592.104 5731182.555 10 0 60908 44100.00000 0 -23927919.413 23502.603 8804492.023 10 0 60908 45000.00000 0 -22653221.578 -60551.344 11706528.169 10 0 60908 45900.00000 0 -21058291.521 -332288.561 14380926.537 10 0 60908 46800.00000 0 -19194436.896 -826311.584 16775798.921 10 0 60908 47700.00000 0 -17120870.066 -1566595.822 18844736.549 10 0 60908 48600.00000 0 -14902320.841 -2565250.065 20547702.331 10 0 60908 49500.00000 0 -12606439.731 -3821784.534 21851795.793 10 0 60908 50400.00000 0 -10301100.450 -5322916.932 22731877.008 10 0 60908 51300.00000 0 -8051713.845 -7042924.316 23171038.899 10 0 60908 52200.00000 0 -5918664.260 -8944525.917 23160920.197 10 0 60908 53100.00000 0 -3954973.683 -10980260.070 22701854.348 10 0 60908 54000.00000 0 -2204289.088 -13094298.138 21802852.621 10 0 60908 54900.00000 0 -699274.665 -15224620.509 20481422.498 10 0 60908 55800.00000 0 539526.191 -17305464.897 18763225.249 10 0 60908 56700.00000 0 1504313.765 -19269946.109 16681579.327 10 0 60908 57600.00000 0 2200115.566 -21052739.382 14276818.799 10 0 60908 58500.00000 0 2644328.528 -22592716.633 11595518.603 10 0 60908 59400.00000 0 2865740.059 -23835426.768 8689600.796 10 0 60908 60300.00000 0 2903069.721 -24735317.374 5615338.146 10 0 60908 61200.00000 0 2803093.076 -25257605.493 2432273.504 10 0 60908 62100.00000 0 2618426.697 -25379719.479 -797924.961 10 0 60908 63000.00000 0 2405067.526 -25092251.435 -4012651.155 10 0 60908 63900.00000 0 2219790.194 -24399379.863 -7149568.563 10 0 60908 64800.00000 0 2117512.029 -23318744.064 -10147814.776 10 0 60908 65700.00000 0 2148737.089 -21880774.588 -12949179.923 10 0 60908 66600.00000 0 2357187.493 -20127506.620 -15499236.138 10 0 60908 67500.00000 0 2777722.688 -18110924.879 -17748396.158 10 0 60908 68400.00000 0 3434635.482 -15890908.059 -19652880.398 10 0 60908 69300.00000 0 4340398.039 -13532857.775 -21175573.491 10 0 60908 70200.00000 0 5494912.375 -11105110.157 -22286753.430 10 0 60908 71100.00000 0 6885298.818 -8676237.429 -22964678.768 10 0 60908 72000.00000 0 8486233.404 -6312351.638 -23196021.947 10 0 60908 72900.00000 0 10260822.170 -4074522.687 -22976139.761 10 0 60908 73800.00000 0 12161977.589 -2016418.284 -22309174.905 10 0 60908 74700.00000 0 14134241.158 -182264.312 -21207985.841 10 0 60908 75600.00000 0 16115977.007 1394789.147 -19693905.441 10 0 60908 76500.00000 0 18041845.423 2693827.820 -17796332.283 10 0 60908 77400.00000 0 19845452.866 3706810.817 -15552161.848 10 0 60908 78300.00000 0 21462067.127 4438659.423 -13005068.228 10 0 60908 79200.00000 0 22831283.077 4906794.001 -10204650.138 10 0 60908 80100.00000 0 23899526.088 5140139.497 -7205458.110 10 0 60908 81000.00000 0 24622286.951 5177642.800 -4065922.385 10 0 60908 81900.00000 0 24965993.295 5066366.182 -847203.311 10 0 60908 82800.00000 0 24909437.969 4859239.230 2388012.128 10 0 60908 83700.00000 0 24444703.926 4612566.350 5576742.848 10 0 60908 84600.00000 0 23577546.559 4383397.224 8656949.933 10 0 60908 85500.00000 0 22327217.899 4226873.290 11568751.293 10 0 60909 0.00000 0 20725741.121 4193663.975 14255589.912 10 0 60909 900.00000 0 18816665.796 4327602.086 16665333.846 10 0 60909 1800.00000 0 16653359.517 4663618.884 18751282.948 10 0 60909 2700.00000 0 14296905.583 5226066.033 20473067.997 10 0 60909 3600.00000 0 11813697.495 6027495.036 21797421.989 10 0 60909 4500.00000 0 9272830.226 7067945.024 22698811.273 10 0 60909 5400.00000 0 6743396.994 8334768.318 23159915.484 10 0 60909 6300.00000 0 4291803.326 9803000.621 23171948.451 10 0 60909 7200.00000 0 1979208.957 11436260.110 22734815.197 10 0 60909 8100.00000 0 -140797.799 13188137.836 21857103.175 10 0 60909 9000.00000 0 -2024198.521 15004021.729 20555908.678 10 0 60909 9900.00000 0 -3638134.997 16823278.695 18856502.201 10 0 60909 10800.00000 0 -4962027.363 18581704.658 16791839.262 10 0 60909 11700.00000 0 -5988175.442 20214141.387 14401925.749 10 0 60909 12600.00000 0 -6721819.894 21657151.934 11733049.478 10 0 60909 13500.00000 0 -7180661.946 22851643.995 8836891.974 10 0 60909 14400.00000 0 -7393862.782 23745332.375 5769536.727 10 0 60909 15300.00000 0 -7400565.130 24294938.088 2590392.260 10 0 60909 16200.00000 0 -7247999.430 24468032.273 -638949.984 10 0 60909 17100.00000 0 -6989254.284 24244447.516 -3855901.497 10 0 60909 18000.00000 0 -6680805.022 23617196.937 -6998083.795 10 0 60909 18900.00000 0 -6379904.468 22592861.655 -10004533.695 10 0 60909 19800.00000 0 -6141945.956 21191429.284 -12816883.612 10 0 60909 20700.00000 0 -6017910.012 19445588.920 -15380494.010 10 0 60909 21600.00000 0 -6052002.860 17399510.723 -17645516.026 10 0 60909 22500.00000 0 -6279587.043 15107159.675 -19567863.531 10 0 60909 23400.00000 0 -6725492.432 12630212.687 -21110075.547 10 0 60909 24300.00000 0 -7402780.110 10035664.758 -22242052.001 10 0 60909 25200.00000 0 -8312012.747 7393223.047 -22941648.185 10 0 60909 26100.00000 0 -9441063.955 4772596.745 -23195115.839 10 0 60909 27000.00000 0 -10765476.468 2240795.128 -22997381.720 10 0 60909 27900.00000 0 -12249355.957 -140453.947 -22352157.480 10 0 60909 28800.00000 0 -13846764.542 -2317057.583 -21271877.919 10 0 60909 29700.00000 0 -15503556.876 -4244585.325 -19777467.936 10 0 60909 30600.00000 0 -17159582.604 -5889885.914 -17897941.873 10 0 60909 31500.00000 0 -18751163.164 -7232225.780 -15669842.369 10 0 60909 32400.00000 0 -20213738.813 -8263901.828 -13136529.130 10 0 60909 33300.00000 0 -21484574.089 -8990303.364 -10347331.285 10 0 60909 34200.00000 0 -22505406.995 -9429421.289 -7356580.018 10 0 60909 35100.00000 0 -23224929.334 -9610826.513 -4222540.890 10 0 60909 36000.00000 0 -23600992.601 -9574162.139 -1006267.525 10 0 60909 36900.00000 0 -23602445.405 -9367214.859 2229599.750 10 0 60909 37800.00000 0 -23210524.193 -9043649.013 5422065.615 10 0 60909 38700.00000 0 -22419738.207 -8660501.165 8509016.449 10 0 60909 39600.00000 0 -21238211.556 -8275543.106 11430436.617 10 0 60909 40500.00000 0 -19687468.266 -7944626.389 14129579.782 10 0 60909 41400.00000 0 -17801670.059 -7719121.892 16554071.898 10 0 60909 42300.00000 0 -15626339.705 -7643563.299 18656924.300 10 0 60909 43200.00000 0 -13216624.269 -7753594.225 20397437.659 10 0 60909 44100.00000 0 -10635171.556 -8074305.300 21741980.074 10 0 60909 45000.00000 0 -7949708.828 -8619030.731 22664625.379 10 0 60909 45900.00000 0 -5230424.627 -9388654.164 23147640.713 10 0 60909 46800.00000 0 -2547262.070 -10371452.289 23181815.371 10 0 60909 47700.00000 0 32764.843 -11543482.076 22766625.944 10 0 60909 48600.00000 0 2448121.996 -12869495.069 21910235.710 10 0 60909 49500.00000 0 4645068.896 -14304340.423 20629329.089 10 0 60909 50400.00000 0 6579641.316 -15794798.273 18948784.826 10 0 60909 51300.00000 0 8219222.577 -17281767.395 16901194.221 10 0 60909 52200.00000 0 9543640.123 -18702716.531 14526233.400 10 0 60909 53100.00000 0 10545743.478 -19994297.805 11869901.156 10 0 60909 54000.00000 0 11231441.017 -21095013.852 8983636.275 10 0 60909 54900.00000 0 11619195.118 -21947827.847 5923330.485 10 0 60909 55800.00000 0 11738997.624 -22502607.672 2748255.269 10 0 60909 56700.00000 0 11630869.038 -22718302.076 -480077.529 10 0 60909 57600.00000 0 11342944.641 -22564757.442 -3699099.947 10 0 60909 58500.00000 0 10929228.056 -22024098.484 -6846394.516 10 0 60909 59400.00000 0 10447106.705 -21091614.068 -9860900.216 10 0 60909 60300.00000 0 9954733.790 -19776109.821 -12684094.608 10 0 60909 61200.00000 0 9508387.140 -18099711.289 -15261129.222 10 0 60909 62100.00000 0 9159916.481 -16097124.286 -17541896.154 10 0 60909 63000.00000 0 8954387.125 -13814381.663 -19482005.074 10 0 60909 63900.00000 0 8928020.065 -11307127.236 -21043651.442 10 0 60909 64800.00000 0 9106516.182 -8638506.994 -22196358.839 10 0 60909 65700.00000 0 9503836.320 -5876754.127 -22917580.626 10 0 60909 66600.00000 0 10121489.942 -3092567.470 -23193148.759 10 0 60909 67500.00000 0 10948363.828 -356391.689 -23017560.452 10 0 60909 68400.00000 0 11961099.571 2264288.104 -22394096.393 10 0 60909 69300.00000 0 13125005.458 4707524.907 -21334767.396 10 0 60909 70200.00000 0 14395465.646 6919254.226 -19860089.665 10 0 60909 71100.00000 0 15719788.341 8855306.555 -17998692.205 10 0 60909 72000.00000 0 17039415.724 10483003.839 -15786763.306 10 0 60909 72900.00000 0 18292402.681 11782273.251 -13267346.387 10 0 60909 73800.00000 0 19416059.564 12746231.903 -10489498.675 10 0 60909 74700.00000 0 20349646.799 13381218.550 -7507329.307 10 0 60909 75600.00000 0 21037006.682 13706271.904 -4378936.130 10 0 60909 76500.00000 0 21429020.050 13752078.820 -1165262.756 10 0 60909 77400.00000 0 21485783.035 13559438.417 2071100.611 10 0 60909 78300.00000 0 21178410.876 13177308.759 5267147.905 10 0 60909 79200.00000 0 20490391.961 12660520.673 8360694.185 10 0 60909 80100.00000 0 19418434.609 12067257.314 11291593.486 10 0 60909 81000.00000 0 17972770.940 11456407.777 14002912.875 10 0 60909 81900.00000 0 16176905.371 10884907.932 16442039.312 10 0 60909 82800.00000 0 14066818.753 10405181.704 18561697.647 10 0 60909 83700.00000 0 11689662.251 10062791.130 20320860.368 10 0 60909 84600.00000 0 9101996.104 9894394.149 21685532.239 10 0 60909 85500.00000 0 6367647.255 9926095.518 22629395.766 99